Location: Darmstadt
(49.8706°N, 8.6494°E)
Time: 07:29:26
(UTC+01:00)

Cosmos 2297 Rocket - Pass Details

Date: 31 October 2020
Orbit: 838 x 844 km, 71.0° (Epoch: 02 December)

Event Time Altitude Azimuth Distance (km) Brightness Sun altitude
Rises 17:59:50 0° 329° (NNW) 3,415 5.6 -9.5°
Reaches altitude 10° 18:02:19 10° 326° (NW) 2,476 5.0 -9.9°
Maximum altitude 18:07:54 62° 247° (WSW) 948 2.8 -10.8°
Drops below altitude 10° 18:13:28 10° 168° (SSE) 2,458 4.6 -11.7°
Sets 18:15:55 0° 165° (SSE) 3,388 5.3 -12.1°
